| time (UTC) | temp F | wind direction | speed MPH | gust MPH | rain 1hr in | rain 24hr in | rain mn in | humidity % | barometer mb |
| 20260831232028 | 85 | 184 | 0.0 | 1.0 | 0.00 | 0.00 | 0.00 | 52 | 1019.7 |
| 20260831231546 | 85 | 0 | 0.0 | 2.0 | 0.00 | 0.00 | 0.00 | 51 | 1019.8 |
| 20260831231024 | 85 | 0 | 0.0 | 3.0 | 0.00 | 0.00 | 0.00 | 50 | 1019.8 |
| 20260831230523 | 86 | 0 | 0.0 | 3.0 | 0.00 | 0.00 | 0.00 | 49 | 1019.8 |
| 20260831230046 | 86 | 255 | 0.0 | 1.0 | 0.00 | 0.00 | 0.00 | 48 | 1019.8 |
| 20260831225525 | 87 | 264 | 0.0 | 1.0 | 0.00 | 0.00 | 0.00 | 47 | 1019.8 |
| 20260831225029 | 87 | 211 | 0.0 | 3.0 | 0.00 | 0.00 | 0.00 | 46 | 1019.8 |
| 20260831224550 | 87 | 0 | 0.0 | 3.0 | 0.00 | 0.00 | 0.00 | 46 | 1019.8 |
| 20260831224026 | 88 | 281 | 0.0 | 4.0 | 0.00 | 0.00 | 0.00 | 45 | 1019.8 |
| 20260831223529 | 88 | 0 | 1.0 | 4.0 | 0.00 | 0.00 | 0.00 | 44 | 1019.8 |
| 20260831223047 | 88 | 303 | 0.0 | 5.0 | 0.00 | 0.00 | 0.00 | 45 | 1019.8 |
| 20260831222526 | 88 | 44 | 1.0 | 5.0 | 0.00 | 0.00 | 0.00 | 44 | 1019.8 |
| 20260831222025 | 89 | 298 | 1.0 | 5.0 | 0.00 | 0.00 | 0.00 | 43 | 1019.7 |
| 20260831221547 | 89 | 307 | 1.0 | 5.0 | 0.00 | 0.00 | 0.00 | 43 | 1019.7 |
| 20260831221025 | 90 | 290 | 1.0 | 5.0 | 0.00 | 0.00 | 0.00 | 43 | 1019.8 |
| 20260831220529 | 90 | 281 | 1.0 | 5.0 | 0.00 | 0.00 | 0.00 | 43 | 1019.8 |
| 20260831220044 | 91 | 12 | 2.0 | 5.0 | 0.00 | 0.00 | 0.00 | 41 | 1019.8 |
| 20260831215524 | 91 | 352 | 1.0 | 5.0 | 0.00 | 0.00 | 0.00 | 41 | 1019.9 |
| 20260831215024 | 92 | 290 | 1.0 | 5.0 | 0.00 | 0.00 | 0.00 | 39 | 1019.9 |
| 20260831214603 | 92 | 271 | 1.0 | 5.0 | 0.00 | 0.00 | 0.00 | 34 | 1020.1 |
| 20260831214024 | 92 | 241 | 1.0 | 5.0 | 0.00 | 0.00 | 0.00 | 35 | 1020.1 |
| 20260831213526 | 92 | 309 | 2.0 | 5.0 | 0.00 | 0.00 | 0.00 | 34 | 1020.2 |
| 20260831213047 | 92 | 301 | 1.0 | 4.0 | 0.00 | 0.00 | 0.00 | 32 | 1020.3 |
| 20260831212526 | 92 | 301 | 1.0 | 4.0 | 0.00 | 0.00 | 0.00 | 32 | 1020.4 |
| 20260831212025 | 91 | 89 | 0.0 | 3.0 | 0.00 | 0.00 | 0.00 | 34 | 1020.3 |
| 20260831211543 | 91 | 307 | 0.0 | 4.0 | 0.00 | 0.00 | 0.00 | 37 | 1020.3 |
| 20260831211027 | 91 | 0 | 0.0 | 4.0 | 0.00 | 0.00 | 0.00 | 36 | 1020.2 |
| 20260831210524 | 91 | 93 | 1.0 | 4.0 | 0.00 | 0.00 | 0.00 | 35 | 1020.1 |
| 20260831210049 | 92 | 102 | 1.0 | 5.0 | 0.00 | 0.00 | 0.00 | 33 | 1020.0 |
| 20260831205525 | 91 | 0 | 0.0 | 6.0 | 0.00 | 0.00 | 0.00 | 33 | 1020.0 |
| 20260831205026 | 92 | 113 | 3.0 | 6.0 | 0.00 | 0.00 | 0.00 | 32 | 1020.0 |
| 20260831204552 | 92 | 119 | 0.0 | 4.0 | 0.00 | 0.00 | 0.00 | 34 | 1020.0 |
| 20260831204027 | 92 | 122 | 1.0 | 4.0 | 0.00 | 0.00 | 0.00 | 33 | 1020.1 |
| 20260831203525 | 93 | 98 | 1.0 | 3.0 | 0.00 | 0.00 | 0.00 | 27 | 1020.1 |
| 20260831203049 | 94 | 0 | 0.0 | 1.0 | 0.00 | 0.00 | 0.00 | 29 | 1020.1 |
| 20260831202529 | 93 | 0 | 0.0 | 3.0 | 0.00 | 0.00 | 0.00 | 30 | 1020.2 |
| 20260831202031 | 92 | 0 | 0.0 | 5.0 | 0.00 | 0.00 | 0.00 | 30 | 1020.2 |
| 20260831201549 | 93 | 108 | 2.0 | 5.0 | 0.00 | 0.00 | 0.00 | 29 | 1020.3 |
| 20260831201030 | 93 | 0 | 1.0 | 5.0 | 0.00 | 0.00 | 0.00 | 29 | 1020.3 |
| 20260831200526 | 93 | 115 | 0.0 | 5.0 | 0.00 | 0.00 | 0.00 | 32 | 1020.4 |
| 20260831200049 | 93 | 119 | 3.0 | 5.0 | 0.00 | 0.00 | 0.00 | 31 | 1020.4 |
| 20260831195523 | 93 | 123 | 0.0 | 5.0 | 0.00 | 0.00 | 0.00 | 33 | 1020.5 |
| 20260831195024 | 92 | 95 | 2.0 | 7.0 | 0.00 | 0.00 | 0.00 | 34 | 1020.4 |
| 20260831194545 | 92 | 96 | 1.0 | 7.0 | 0.00 | 0.00 | 0.00 | 34 | 1020.5 |
| 20260831194025 | 92 | 93 | 5.0 | 7.0 | 0.00 | 0.00 | 0.00 | 32 | 1020.5 |
| 20260831193527 | 93 | 86 | 1.0 | 4.0 | 0.00 | 0.00 | 0.00 | 37 | 1020.6 |
| 20260831193046 | 92 | 285 | 1.0 | 3.0 | 0.00 | 0.00 | 0.00 | 33 | 1020.7 |
| 20260831192522 | 92 | 290 | 0.0 | 3.0 | 0.00 | 0.00 | 0.00 | 34 | 1020.7 |
| 20260831192028 | 92 | 0 | 0.0 | 5.0 | 0.00 | 0.00 | 0.00 | 35 | 1020.8 |
| 20260831191545 | 91 | 0 | 0.0 | 5.0 | 0.00 | 0.00 | 0.00 | 35 | 1020.8 |
| 20260831191024 | 90 | 113 | 2.0 | 5.0 | 0.00 | 0.00 | 0.00 | 33 | 1020.8 |
| 20260831190525 | 91 | 101 | 2.0 | 5.0 | 0.00 | 0.00 | 0.00 | 35 | 1020.9 |
| 20260831190105 | 91 | 79 | 2.0 | 7.0 | 0.00 | 0.00 | 0.00 | 36 | 1021.1 |
| 20260831185524 | 91 | 105 | 3.0 | 7.0 | 0.00 | 0.00 | 0.00 | 36 | 1021.3 |
| 20260831185023 | 91 | 125 | 5.0 | 8.0 | 0.00 | 0.00 | 0.00 | 38 | 1021.3 |
| 20260831184544 | 92 | 142 | 3.0 | 8.0 | 0.00 | 0.00 | 0.00 | 36 | 1021.3 |
| 20260831184024 | 92 | 97 | 3.0 | 9.0 | 0.00 | 0.00 | 0.00 | 37 | 1021.4 |
| 20260831183527 | 92 | 94 | 1.0 | 9.0 | 0.00 | 0.00 | 0.00 | 40 | 1021.3 |
| 20260831183058 | 92 | 275 | 1.0 | 4.0 | 0.00 | 0.00 | 0.00 | 40 | 1021.3 |
| 20260831182531 | 92 | 91 | 0.0 | 3.0 | 0.00 | 0.00 | 0.00 | 40 | 1021.3 |
| 20260831182026 | 91 | 320 | 1.0 | 3.0 | 0.00 | 0.00 | 0.00 | 39 | 1021.3 |
| 20260831181545 | 92 | 290 | 1.0 | 2.0 | 0.00 | 0.00 | 0.00 | 39 | 1021.4 |
| 20260831181025 | 91 | 0 | 0.0 | 6.0 | 0.00 | 0.00 | 0.00 | 43 | 1021.5 |
| 20260831180525 | 91 | 299 | 1.0 | 6.0 | 0.00 | 0.00 | 0.00 | 42 | 1021.6 |
| 20260831180045 | 91 | 92 | 2.0 | 4.0 | 0.00 | 0.00 | 0.00 | 43 | 1021.7 |
| 20260831175527 | 92 | 285 | 1.0 | 2.0 | 0.00 | 0.00 | 0.00 | 43 | 1021.7 |
| 20260831175022 | 91 | 0 | 0.0 | 2.0 | 0.00 | 0.00 | 0.00 | 46 | 1021.7 |
| 20260831174553 | 90 | 295 | 1.0 | 3.0 | 0.00 | 0.00 | 0.00 | 41 | 1021.8 |
| 20260831174024 | 89 | 259 | 1.0 | 6.0 | 0.00 | 0.00 | 0.00 | 43 | 1021.8 |
| 20260831173526 | 89 | 103 | 2.0 | 6.0 | 0.00 | 0.00 | 0.00 | 45 | 1021.9 |
| 20260831173046 | 90 | 107 | 1.0 | 6.0 | 0.00 | 0.00 | 0.00 | 44 | 1021.9 |
| 20260831172524 | 90 | 100 | 3.0 | 6.0 | 0.00 | 0.00 | 0.00 | 45 | 1021.9 |
| 20260831172025 | 90 | 131 | 1.0 | 7.0 | 0.00 | 0.00 | 0.00 | 43 | 1022.0 |
| 20260831171544 | 90 | 0 | 1.0 | 7.0 | 0.00 | 0.00 | 0.00 | 46 | 1022.1 |
| 20260831171024 | 90 | 0 | 0.0 | 6.0 | 0.00 | 0.00 | 0.00 | 44 | 1022.2 |
| 20260831170523 | 89 | 128 | 2.0 | 7.0 | 0.00 | 0.00 | 0.00 | 46 | 1022.1 |
| 20260831170043 | 89 | 82 | 4.0 | 7.0 | 0.00 | 0.00 | 0.00 | 46 | 1022.1 |
| 20260831165524 | 89 | 0 | 1.0 | 5.0 | 0.00 | 0.00 | 0.00 | 48 | 1022.1 |
| 20260831165029 | 89 | 87 | 0.0 | 5.0 | 0.00 | 0.00 | 0.00 | 49 | 1022.1 |
| 20260831164546 | 88 | 106 | 0.0 | 4.0 | 0.00 | 0.00 | 0.00 | 48 | 1022.0 |
| 20260831164024 | 89 | 84 | 0.0 | 3.0 | 0.00 | 0.00 | 0.00 | 49 | 1022.1 |
| 20260831163525 | 88 | 0 | 0.0 | 3.0 | 0.00 | 0.00 | 0.00 | 52 | 1022.1 |
| 20260831163046 | 88 | 305 | 0.0 | 4.0 | 0.00 | 0.00 | 0.00 | 51 | 1022.1 |
| 20260831162526 | 87 | 0 | 0.0 | 4.0 | 0.00 | 0.00 | 0.00 | 63 | 1022.3 |
| 20260831162026 | 86 | 318 | 1.0 | 4.0 | 0.00 | 0.00 | 0.00 | 61 | 1022.5 |
| 20260831161547 | 86 | 290 | 3.0 | 4.0 | 0.00 | 0.00 | 0.00 | 60 | 1022.5 |
| 20260831161022 | 87 | 295 | 1.0 | 3.0 | 0.00 | 0.00 | 0.00 | 62 | 1022.5 |
| 20260831160524 | 86 | 46 | 1.0 | 5.0 | 0.00 | 0.00 | 0.00 | 63 | 1022.6 |
| 20260831160047 | 86 | 84 | 2.0 | 5.0 | 0.00 | 0.00 | 0.00 | 65 | 1022.5 |
| 20260831155524 | 86 | 124 | 1.0 | 4.0 | 0.00 | 0.00 | 0.00 | 63 | 1022.5 |
| 20260831155027 | 86 | 98 | 1.0 | 4.0 | 0.00 | 0.00 | 0.00 | 64 | 1022.6 |
| 20260831154619 | 85 | 276 | 1.0 | 4.0 | 0.00 | 0.00 | 0.00 | 66 | 1022.6 |
| 20260831154024 | 84 | 0 | 1.0 | 4.0 | 0.00 | 0.00 | 0.00 | 65 | 1022.7 |
| 20260831153522 | 84 | 19 | 1.0 | 4.0 | 0.00 | 0.00 | 0.00 | 66 | 1022.8 |
| 20260831153047 | 84 | 304 | 1.0 | 3.0 | 0.00 | 0.00 | 0.00 | 66 | 1022.8 |
| 20260831152530 | 85 | 302 | 1.0 | 3.0 | 0.00 | 0.00 | 0.00 | 66 | 1022.8 |
| 20260831152027 | 86 | 300 | 1.0 | 2.0 | 0.00 | 0.00 | 0.00 | 67 | 1022.9 |
| 20260831151547 | 85 | 123 | 0.0 | 2.0 | 0.00 | 0.00 | 0.00 | 67 | 1022.8 |
| 20260831151027 | 84 | 44 | 0.0 | 2.0 | 0.00 | 0.00 | 0.00 | 69 | 1022.9 |
| 20260831150526 | 82 | 0 | 0.0 | 3.0 | 0.00 | 0.00 | 0.00 | 69 | 1022.9 |
| 20260831150043 | 83 | 346 | 1.0 | 3.0 | 0.00 | 0.00 | 0.00 | 68 | 1022.9 |
| 20260831145525 | 83 | 291 | 1.0 | 3.0 | 0.00 | 0.00 | 0.00 | 68 | 1022.9 |
| 20260831145024 | 83 | 0 | 0.0 | 3.0 | 0.00 | 0.00 | 0.00 | 71 | 1022.9 |
| 20260831144542 | 83 | 304 | 1.0 | 3.0 | 0.00 | 0.00 | 0.00 | 69 | 1022.9 |
| 20260831144025 | 83 | 0 | 0.0 | 3.0 | 0.00 | 0.00 | 0.00 | 69 | 1022.9 |
| 20260831143530 | 83 | 288 | 1.0 | 3.0 | 0.00 | 0.00 | 0.00 | 69 | 1022.8 |
| 20260831143051 | 84 | 325 | 0.0 | 2.0 | 0.00 | 0.00 | 0.00 | 67 | 1022.7 |
| 20260831142523 | 84 | 0 | 0.0 | 2.0 | 0.00 | 0.00 | 0.00 | 68 | 1022.8 |
| 20260831142023 | 86 | 280 | 0.0 | 1.0 | 0.00 | 0.00 | 0.00 | 66 | 1022.7 |
| 20260831141545 | 86 | 0 | 0.0 | 1.0 | 0.00 | 0.00 | 0.00 | 67 | 1022.7 |
| 20260831141023 | 85 | 0 | 0.0 | 0.0 | 0.00 | 0.00 | 0.00 | 68 | 1022.7 |
| 20260831140526 | 84 | 0 | 0.0 | 2.0 | 0.00 | 0.00 | 0.00 | 70 | 1022.7 |
| 20260831140044 | 83 | 0 | 0.0 | 2.0 | 0.00 | 0.00 | 0.00 | 70 | 1022.7 |
| 20260831135522 | 83 | 0 | 0.0 | 3.0 | 0.00 | 0.00 | 0.00 | 70 | 1022.8 |
| 20260831135027 | 82 | 0 | 0.0 | 3.0 | 0.00 | 0.00 | 0.00 | 70 | 1022.7 |
| 20260831134542 | 83 | 0 | 0.0 | 2.0 | 0.00 | 0.00 | 0.00 | 70 | 1022.7 |
| 20260831134026 | 82 | 0 | 0.0 | 2.0 | 0.00 | 0.00 | 0.00 | 71 | 1022.6 |
| 20260831133525 | 81 | 288 | 0.0 | 2.0 | 0.00 | 0.00 | 0.00 | 72 | 1022.4 |
| 20260831133051 | 81 | 0 | 0.0 | 2.0 | 0.00 | 0.00 | 0.00 | 72 | 1022.5 |
| 20260831132524 | 80 | 0 | 0.0 | 1.0 | 0.00 | 0.00 | 0.00 | 74 | 1022.6 |
| 20260831132024 | 79 | 0 | 0.0 | 1.0 | 0.00 | 0.00 | 0.00 | 74 | 1022.6 |
| 20260831131546 | 78 | 0 | 0.0 | 1.0 | 0.00 | 0.00 | 0.00 | 76 | 1022.5 |
| 20260831131027 | 77 | 0 | 0.0 | 1.0 | 0.00 | 0.00 | 0.00 | 79 | 1022.6 |
| 20260831130523 | 75 | 0 | 0.0 | 1.0 | 0.00 | 0.00 | 0.00 | 80 | 1022.5 |
| 20260831130048 | 75 | 100 | 0.0 | 1.0 | 0.00 | 0.00 | 0.00 | 81 | 1022.6 |
| 20260831125524 | 74 | 0 | 0.0 | 1.0 | 0.00 | 0.00 | 0.00 | 82 | 1022.6 |
| 20260831125024 | 74 | 0 | 0.0 | 1.0 | 0.00 | 0.00 | 0.00 | 83 | 1022.6 |
| 20260831124548 | 74 | 0 | 0.0 | 1.0 | 0.00 | 0.00 | 0.00 | 83 | 1022.6 |
| 20260831124025 | 74 | 0 | 0.0 | 1.0 | 0.00 | 0.00 | 0.00 | 84 | 1022.5 |
| 20260831123524 | 73 | 0 | 0.0 | 1.0 | 0.00 | 0.00 | 0.00 | 84 | 1022.5 |
| 20260831123048 | 73 | 0 | 0.0 | 1.0 | 0.00 | 0.00 | 0.00 | 85 | 1022.6 |
| 20260831122525 | 73 | 0 | 0.0 | 1.0 | 0.00 | 0.00 | 0.00 | 85 | 1022.5 |
| 20260831122026 | 73 | 0 | 0.0 | 0.0 | 0.00 | 0.00 | 0.00 | 85 | 1022.5 |
| 20260831121547 | 72 | 0 | 0.0 | 0.0 | 0.00 | 0.00 | 0.00 | 86 | 1022.4 |
| 20260831121024 | 72 | 0 | 0.0 | 0.0 | 0.00 | 0.00 | 0.00 | 86 | 1022.5 |
| 20260831120525 | 71 | 0 | 0.0 | 0.0 | 0.00 | 0.00 | 0.00 | 86 | 1022.3 |
| 20260831120052 | 71 | 0 | 0.0 | 0.0 | 0.00 | 0.00 | 0.00 | 86 | 1022.3 |
| 20260831115529 | 70 | 0 | 0.0 | 0.0 | 0.00 | 0.00 | 0.00 | 86 | 1022.3 |
| 20260831115024 | 70 | 0 | 0.0 | 0.0 | 0.00 | 0.00 | 0.00 | 86 | 1022.3 |
| 20260831114542 | 70 | 0 | 0.0 | 0.0 | 0.00 | 0.00 | 0.00 | 85 | 1022.3 |
| 20260831114026 | 70 | 0 | 0.0 | 0.0 | 0.00 | 0.00 | 0.00 | 85 | 1022.4 |
| 20260831113524 | 70 | 0 | 0.0 | 0.0 | 0.00 | 0.00 | 0.00 | 85 | 1022.4 |
| 20260831113108 | 69 | 0 | 0.0 | 0.0 | 0.00 | 0.00 | 0.00 | 85 | 1022.3 |
| 20260831112523 | 69 | 0 | 0.0 | 0.0 | 0.00 | 0.00 | 0.00 | 85 | 1022.3 |
| 20260831112023 | 69 | 0 | 0.0 | 0.0 | 0.00 | 0.00 | 0.00 | 85 | 1022.2 |
| 20260831111543 | 69 | 0 | 0.0 | 0.0 | 0.00 | 0.00 | 0.00 | 85 | 1022.2 |
| 20260831111024 | 69 | 0 | 0.0 | 0.0 | 0.00 | 0.00 | 0.00 | 85 | 1022.0 |
| 20260831110523 | 69 | 0 | 0.0 | 0.0 | 0.00 | 0.00 | 0.00 | 84 | 1021.9 |
| 20260831110040 | 69 | 0 | 0.0 | 0.0 | 0.00 | 0.00 | 0.00 | 84 | 1021.8 |
| 20260831105523 | 70 | 0 | 0.0 | 0.0 | 0.00 | 0.00 | 0.00 | 84 | 1021.7 |
| 20260831105024 | 70 | 0 | 0.0 | 0.0 | 0.00 | 0.00 | 0.00 | 84 | 1021.7 |
| 20260831104549 | 70 | 0 | 0.0 | 0.0 | 0.00 | 0.00 | 0.00 | 84 | 1021.6 |
| 20260831104026 | 70 | 0 | 0.0 | 0.0 | 0.00 | 0.00 | 0.00 | 84 | 1021.6 |
| 20260831103531 | 70 | 0 | 0.0 | 0.0 | 0.00 | 0.00 | 0.00 | 84 | 1021.7 |
| 20260831103051 | 70 | 0 | 0.0 | 0.0 | 0.00 | 0.00 | 0.00 | 83 | 1021.7 |
| 20260831102527 | 70 | 0 | 0.0 | 0.0 | 0.00 | 0.00 | 0.00 | 83 | 1021.7 |
| 20260831102029 | 70 | 0 | 0.0 | 0.0 | 0.00 | 0.00 | 0.00 | 83 | 1021.7 |
| 20260831101549 | 70 | 0 | 0.0 | 0.0 | 0.00 | 0.00 | 0.00 | 83 | 1021.8 |
| 20260831101025 | 70 | 0 | 0.0 | 0.0 | 0.00 | 0.00 | 0.00 | 83 | 1021.7 |
| 20260831100523 | 70 | 0 | 0.0 | 0.0 | 0.00 | 0.00 | 0.00 | 83 | 1021.6 |
| 20260831100048 | 70 | 0 | 0.0 | 0.0 | 0.00 | 0.00 | 0.00 | 83 | 1021.6 |
| 20260831095521 | 70 | 0 | 0.0 | 0.0 | 0.00 | 0.00 | 0.00 | 83 | 1021.6 |
| 20260831095021 | 70 | 0 | 0.0 | 0.0 | 0.00 | 0.00 | 0.00 | 83 | 1021.7 |
| 20260831094556 | 70 | 0 | 0.0 | 0.0 | 0.00 | 0.00 | 0.00 | 83 | 1021.6 |
| 20260831094025 | 70 | 0 | 0.0 | 0.0 | 0.00 | 0.00 | 0.00 | 83 | 1021.7 |
| 20260831093525 | 70 | 0 | 0.0 | 0.0 | 0.00 | 0.00 | 0.00 | 83 | 1021.6 |
| 20260831093047 | 70 | 0 | 0.0 | 0.0 | 0.00 | 0.00 | 0.00 | 82 | 1021.8 |
| 20260831092525 | 70 | 0 | 0.0 | 0.0 | 0.00 | 0.00 | 0.00 | 81 | 1021.7 |
| 20260831092027 | 70 | 0 | 0.0 | 0.0 | 0.00 | 0.00 | 0.00 | 80 | 1021.7 |
| 20260831091548 | 70 | 0 | 0.0 | 0.0 | 0.00 | 0.00 | 0.00 | 80 | 1021.7 |
| 20260831091025 | 70 | 0 | 0.0 | 0.0 | 0.00 | 0.00 | 0.00 | 80 | 1021.8 |
| 20260831090523 | 70 | 0 | 0.0 | 0.0 | 0.00 | 0.00 | 0.00 | 79 | 1021.8 |
| 20260831090053 | 71 | 0 | 0.0 | 0.0 | 0.00 | 0.00 | 0.00 | 79 | 1021.8 |
| 20260831085528 | 71 | 0 | 0.0 | 0.0 | 0.00 | 0.00 | 0.00 | 79 | 1021.7 |
| 20260831085026 | 71 | 0 | 0.0 | 0.0 | 0.00 | 0.00 | 0.00 | 79 | 1021.6 |
| 20260831084550 | 71 | 0 | 0.0 | 0.0 | 0.00 | 0.00 | 0.00 | 79 | 1021.6 |
| 20260831084025 | 71 | 0 | 0.0 | 0.0 | 0.00 | 0.00 | 0.00 | 79 | 1021.5 |
| 20260831083525 | 71 | 0 | 0.0 | 0.0 | 0.00 | 0.00 | 0.00 | 77 | 1021.5 |
| 20260831083050 | 71 | 0 | 0.0 | 0.0 | 0.00 | 0.00 | 0.00 | 76 | 1021.6 |
| 20260831082528 | 71 | 0 | 0.0 | 0.0 | 0.00 | 0.00 | 0.00 | 76 | 1021.5 |
| 20260831082023 | 71 | 0 | 0.0 | 0.0 | 0.00 | 0.00 | 0.00 | 76 | 1021.4 |
| 20260831081542 | 71 | 0 | 0.0 | 0.0 | 0.00 | 0.00 | 0.00 | 75 | 1021.3 |
| 20260831081025 | 71 | 0 | 0.0 | 0.0 | 0.00 | 0.00 | 0.00 | 75 | 1021.3 |
| 20260831080525 | 71 | 0 | 0.0 | 0.0 | 0.00 | 0.00 | 0.00 | 75 | 1021.3 |
| 20260831080049 | 71 | 0 | 0.0 | 0.0 | 0.00 | 0.00 | 0.00 | 75 | 1021.3 |
| 20260831075525 | 71 | 0 | 0.0 | 0.0 | 0.00 | 0.00 | 0.00 | 75 | 1021.4 |
| 20260831075024 | 71 | 0 | 0.0 | 0.0 | 0.00 | 0.00 | 0.00 | 75 | 1021.3 |
| 20260831074548 | 71 | 0 | 0.0 | 0.0 | 0.00 | 0.00 | 0.00 | 74 | 1021.4 |
| 20260831074026 | 71 | 0 | 0.0 | 0.0 | 0.00 | 0.00 | 0.00 | 74 | 1021.3 |
| 20260831073526 | 71 | 0 | 0.0 | 0.0 | 0.00 | 0.00 | 0.00 | 73 | 1021.3 |
| 20260831073045 | 71 | 0 | 0.0 | 0.0 | 0.00 | 0.00 | 0.00 | 73 | 1021.2 |
| 20260831072526 | 72 | 0 | 0.0 | 0.0 | 0.00 | 0.00 | 0.00 | 73 | 1021.1 |
| 20260831072027 | 72 | 0 | 0.0 | 0.0 | 0.00 | 0.00 | 0.00 | 73 | 1021.1 |
| 20260831071555 | 72 | 0 | 0.0 | 0.0 | 0.00 | 0.00 | 0.00 | 73 | 1021.1 |
| 20260831071027 | 72 | 0 | 0.0 | 0.0 | 0.00 | 0.00 | 0.00 | 73 | 1021.1 |
| 20260831070526 | 72 | 0 | 0.0 | 0.0 | 0.00 | 0.00 | 0.00 | 73 | 1021.1 |
| 20260831070050 | 72 | 0 | 0.0 | 0.0 | 0.00 | 0.00 | 0.00 | 73 | 1021.1 |
| 20260831065525 | 72 | 0 | 0.0 | 0.0 | 0.00 | 0.00 | 0.00 | 72 | 1021.2 |
| 20260831065025 | 72 | 0 | 0.0 | 0.0 | 0.00 | 0.00 | 0.00 | 72 | 1021.3 |
| 20260831064546 | 72 | 0 | 0.0 | 0.0 | 0.00 | 0.00 | 0.00 | 73 | 1021.3 |
| 20260831064023 | 72 | 0 | 0.0 | 0.0 | 0.00 | 0.00 | 0.00 | 72 | 1021.3 |
| 20260831063524 | 72 | 0 | 0.0 | 0.0 | 0.00 | 0.00 | 0.00 | 72 | 1021.4 |
| 20260831063049 | 72 | 0 | 0.0 | 0.0 | 0.00 | 0.00 | 0.00 | 71 | 1021.4 |
| 20260831062526 | 72 | 0 | 0.0 | 0.0 | 0.00 | 0.00 | 0.00 | 71 | 1021.4 |
| 20260831062030 | 72 | 0 | 0.0 | 0.0 | 0.00 | 0.00 | 0.00 | 71 | 1021.4 |
| 20260831061547 | 72 | 0 | 0.0 | 1.0 | 0.00 | 0.00 | 0.00 | 70 | 1021.5 |
| 20260831061030 | 72 | 0 | 0.0 | 1.0 | 0.00 | 0.00 | 0.00 | 70 | 1021.4 |
| 20260831060524 | 72 | 0 | 0.0 | 0.0 | 0.00 | 0.00 | 0.00 | 70 | 1021.4 |
| 20260831060050 | 72 | 0 | 0.0 | 0.0 | 0.00 | 0.00 | 0.00 | 69 | 1021.5 |
| 20260831055527 | 72 | 0 | 0.0 | 0.0 | 0.00 | 0.00 | 0.00 | 69 | 1021.5 |
| 20260831055025 | 72 | 0 | 0.0 | 0.0 | 0.00 | 0.00 | 0.00 | 69 | 1021.5 |
| 20260831054544 | 72 | 0 | 0.0 | 0.0 | 0.00 | 0.00 | 0.00 | 69 | 1021.6 |
| 20260831054028 | 72 | 0 | 0.0 | 0.0 | 0.00 | 0.00 | 0.00 | 68 | 1021.6 |
| 20260831053525 | 72 | 0 | 0.0 | 0.0 | 0.00 | 0.00 | 0.00 | 68 | 1021.6 |
| 20260831053050 | 73 | 0 | 0.0 | 0.0 | 0.00 | 0.00 | 0.00 | 68 | 1021.6 |
| 20260831052525 | 73 | 0 | 0.0 | 0.0 | 0.00 | 0.00 | 0.00 | 68 | 1021.7 |
| 20260831052025 | 73 | 0 | 0.0 | 0.0 | 0.00 | 0.00 | 0.00 | 68 | 1021.6 |
| 20260831051555 | 73 | 0 | 0.0 | 0.0 | 0.00 | 0.00 | 0.00 | 68 | 1021.6 |
| 20260831051024 | 73 | 0 | 0.0 | 0.0 | 0.00 | 0.00 | 0.00 | 67 | 1021.4 |
| 20260831050524 | 73 | 0 | 0.0 | 0.0 | 0.00 | 0.00 | 0.00 | 67 | 1021.5 |
| 20260831050048 | 73 | 0 | 0.0 | 0.0 | 0.00 | 0.00 | 0.00 | 67 | 1021.7 |
| 20260831045525 | 73 | 0 | 0.0 | 0.0 | 0.00 | 0.00 | 0.00 | 67 | 1021.6 |
| 20260831045024 | 73 | 0 | 0.0 | 0.0 | 0.00 | 0.00 | 0.00 | 67 | 1021.6 |
| 20260831044542 | 73 | 0 | 0.0 | 0.0 | 0.00 | 0.00 | 0.00 | 66 | 1021.6 |
| 20260831044025 | 73 | 0 | 0.0 | 0.0 | 0.00 | 0.00 | 0.00 | 66 | 1021.5 |
| 20260831043525 | 73 | 0 | 0.0 | 0.0 | 0.00 | 0.00 | 0.00 | 66 | 1021.7 |
| 20260831043048 | 73 | 0 | 0.0 | 0.0 | 0.00 | 0.00 | 0.00 | 66 | 1021.6 |
| 20260831042529 | 74 | 0 | 0.0 | 0.0 | 0.00 | 0.00 | 0.00 | 66 | 1021.6 |
| 20260831042024 | 74 | 0 | 0.0 | 0.0 | 0.00 | 0.00 | 0.00 | 65 | 1021.7 |
| 20260831041550 | 74 | 0 | 0.0 | 0.0 | 0.00 | 0.00 | 0.00 | 65 | 1021.6 |
| 20260831041024 | 74 | 0 | 0.0 | 0.0 | 0.00 | 0.00 | 0.00 | 65 | 1021.7 |
| 20260831040524 | 74 | 0 | 0.0 | 0.0 | 0.00 | 0.00 | 0.00 | 65 | 1021.7 |
| 20260831040047 | 74 | 0 | 0.0 | 0.0 | 0.00 | 0.00 | 0.00 | 65 | 1021.7 |
| 20260831035528 | 74 | 0 | 0.0 | 0.0 | 0.00 | 0.00 | 0.00 | 65 | 1021.8 |
| 20260831035023 | 74 | 0 | 0.0 | 0.0 | 0.00 | 0.00 | 0.00 | 65 | 1021.8 |
| 20260831034551 | 74 | 0 | 0.0 | 0.0 | 0.00 | 0.00 | 0.00 | 65 | 1021.8 |
| 20260831034026 | 74 | 0 | 0.0 | 0.0 | 0.00 | 0.00 | 0.00 | 65 | 1021.8 |
| 20260831033525 | 74 | 0 | 0.0 | 0.0 | 0.00 | 0.00 | 0.00 | 65 | 1021.7 |
| 20260831033048 | 74 | 0 | 0.0 | 0.0 | 0.00 | 0.00 | 0.00 | 65 | 1021.8 |
| 20260831032524 | 74 | 0 | 0.0 | 0.0 | 0.00 | 0.00 | 0.00 | 65 | 1021.9 |
| 20260831032024 | 74 | 0 | 0.0 | 0.0 | 0.00 | 0.00 | 0.00 | 64 | 1021.8 |
| 20260831031545 | 74 | 0 | 0.0 | 0.0 | 0.00 | 0.00 | 0.00 | 64 | 1021.8 |
| 20260831031023 | 74 | 0 | 0.0 | 0.0 | 0.00 | 0.00 | 0.00 | 64 | 1021.8 |
| 20260831030527 | 75 | 0 | 0.0 | 0.0 | 0.00 | 0.00 | 0.00 | 64 | 1021.9 |
| 20260831030042 | 75 | 0 | 0.0 | 0.0 | 0.00 | 0.00 | 0.00 | 64 | 1021.9 |
| 20260831025524 | 75 | 0 | 0.0 | 0.0 | 0.00 | 0.00 | 0.00 | 64 | 1021.8 |
| 20260831025025 | 75 | 0 | 0.0 | 0.0 | 0.00 | 0.00 | 0.00 | 64 | 1021.8 |
| 20260831024547 | 75 | 0 | 0.0 | 0.0 | 0.00 | 0.00 | 0.00 | 63 | 1021.7 |
| 20260831024023 | 75 | 0 | 0.0 | 0.0 | 0.00 | 0.00 | 0.00 | 63 | 1021.7 |
| 20260831023523 | 75 | 0 | 0.0 | 0.0 | 0.00 | 0.00 | 0.00 | 63 | 1021.7 |
| 20260831023051 | 75 | 0 | 0.0 | 0.0 | 0.00 | 0.00 | 0.00 | 63 | 1021.6 |
| 20260831022524 | 75 | 0 | 0.0 | 0.0 | 0.00 | 0.00 | 0.00 | 63 | 1021.8 |
| 20260831022024 | 76 | 0 | 0.0 | 0.0 | 0.00 | 0.00 | 0.00 | 62 | 1021.8 |
| 20260831021544 | 76 | 0 | 0.0 | 0.0 | 0.00 | 0.00 | 0.00 | 62 | 1021.8 |
| 20260831021023 | 76 | 0 | 0.0 | 0.0 | 0.00 | 0.00 | 0.00 | 62 | 1021.8 |
| 20260831020524 | 76 | 0 | 0.0 | 0.0 | 0.00 | 0.00 | 0.00 | 61 | 1021.7 |
| 20260831020054 | 76 | 0 | 0.0 | 0.0 | 0.00 | 0.00 | 0.00 | 61 | 1021.7 |
| 20260831015526 | 76 | 0 | 0.0 | 0.0 | 0.00 | 0.00 | 0.00 | 61 | 1021.7 |
| 20260831015023 | 77 | 0 | 0.0 | 0.0 | 0.00 | 0.00 | 0.00 | 61 | 1021.7 |
| 20260831014547 | 77 | 0 | 0.0 | 0.0 | 0.00 | 0.00 | 0.00 | 60 | 1021.6 |
| 20260831014024 | 76 | 0 | 0.0 | 0.0 | 0.00 | 0.00 | 0.00 | 61 | 1021.6 |
| 20260831013524 | 76 | 0 | 0.0 | 0.0 | 0.00 | 0.00 | 0.00 | 60 | 1021.6 |
| 20260831013056 | 77 | 0 | 0.0 | 0.0 | 0.00 | 0.00 | 0.00 | 60 | 1021.5 |
| 20260831012527 | 77 | 0 | 0.0 | 0.0 | 0.00 | 0.00 | 0.00 | 60 | 1021.6 |
| 20260831012024 | 77 | 0 | 0.0 | 0.0 | 0.00 | 0.00 | 0.00 | 60 | 1021.5 |
| 20260831011546 | 77 | 0 | 0.0 | 0.0 | 0.00 | 0.00 | 0.00 | 59 | 1021.4 |
| 20260831011026 | 78 | 0 | 0.0 | 0.0 | 0.00 | 0.00 | 0.00 | 59 | 1021.4 |
| 20260831010525 | 78 | 0 | 0.0 | 0.0 | 0.00 | 0.00 | 0.00 | 58 | 1021.3 |
| 20260831010053 | 78 | 0 | 0.0 | 0.0 | 0.00 | 0.00 | 0.00 | 58 | 1021.1 |
| 20260831005525 | 78 | 0 | 0.0 | 0.0 | 0.00 | 0.00 | 0.00 | 57 | 1021.1 |
| 20260831005025 | 78 | 0 | 0.0 | 0.0 | 0.00 | 0.00 | 0.00 | 57 | 1021.1 |
| 20260831004547 | 79 | 0 | 0.0 | 0.0 | 0.00 | 0.00 | 0.00 | 56 | 1021.0 |
| 20260831004028 | 79 | 0 | 0.0 | 0.0 | 0.00 | 0.00 | 0.00 | 56 | 1021.1 |
| 20260831003532 | 79 | 0 | 0.0 | 0.0 | 0.00 | 0.00 | 0.00 | 56 | 1021.0 |
| 20260831003045 | 80 | 0 | 0.0 | 0.0 | 0.00 | 0.00 | 0.00 | 55 | 1021.0 |
| 20260831002525 | 80 | 0 | 0.0 | 0.0 | 0.00 | 0.00 | 0.00 | 55 | 1020.9 |
| 20260831002023 | 80 | 0 | 0.0 | 0.0 | 0.00 | 0.00 | 0.00 | 54 | 1020.9 |
| 20260831001548 | 81 | 0 | 0.0 | 0.0 | 0.00 | 0.00 | 0.00 | 53 | 1020.8 |
| 20260831001023 | 81 | 0 | 0.0 | 0.0 | 0.00 | 0.00 | 0.00 | 53 | 1020.7 |
| 20260831000523 | 81 | 0 | 0.0 | 0.0 | 0.00 | 0.00 | 0.00 | 52 | 1020.6 |
| 20260831000044 | 82 | 0 | 0.0 | 1.0 | 0.00 | 0.00 | 0.00 | 52 | 1020.6 |
| 20260830235526 | 82 | 0 | 0.0 | 1.0 | 0.00 | 0.00 | 0.00 | 52 | 1020.5 |
| 20260830235026 | 82 | 100 | 0.0 | 1.0 | 0.00 | 0.00 | 0.00 | 52 | 1020.5 |
| 20260830234554 | 83 | 0 | 0.0 | 0.0 | 0.00 | 0.00 | 0.00 | 51 | 1020.5 |
| 20260830234025 | 83 | 0 | 0.0 | 0.0 | 0.00 | 0.00 | 0.00 | 50 | 1020.4 |
| 20260830233527 | 83 | 0 | 0.0 | 0.0 | 0.00 | 0.00 | 0.00 | 50 | 1020.4 |
| 20260830233048 | 84 | 0 | 0.0 | 2.0 | 0.00 | 0.00 | 0.00 | 50 | 1020.4 |
| 20260830232525 | 84 | 0 | 0.0 | 2.0 | 0.00 | 0.00 | 0.00 | 49 | 1020.5 |